STARLINK-30119, 56823

Orbit data source: Space-Track

STARLINK-30119, 56823 is a payload satellite owned by SpaceX/Seattle (US) in LEO that was launched on Sun, 04 Jun 2023 UTC via an FALCON 9 launch vehicle from the Air Force Eastern Test Range (AFETR). Payload-class satellites include a variety of spacecraft equipped with specific instruments for various scientific and technological missions. These include communications satellites like Starlink; space stations such as the ISS; scientific satellites like the Hubble; Earth observation satellites from companies like Planet Labs, Umbra, and HawkEye 360; GPS; miniature CubeSats for education and research; and military/defense satellites.

Loading next visibility...
Identifier
56823, 2023-079A
Orbit
LEO
Country
Flag of USUS
Related business
Manufacturer
SpaceX/Seattle
Mission
Operational Commercial Communications
Bus & Motor
STARLINK V2M, Unknown motor
Mass
730 kg wet, ~700 kg dry
Launch date (UTC)
2023-06-04 (3 years ago)
Launch vehicle
FALCON 9
Launch site
Air Force Eastern Test Range (AFETR)
Object type
Payload
Rocket body
Debris
Shape & HBR
Box + 2 Pan, 17.7 m
Radar Cross Section
33.884 m², Large (>1 m²)

Expand to show TLE details & history
Last TLE update: 2 days ago

TLE from 2 days ago
0 STARLINK-30119
1 56823U 23079A   26171.20298619  .00000173  00000-0  15801-4 0  9999
2 56823  43.0003 248.3400 0001377 252.2489 107.8212 15.27580297168997
Epoch: 2026-06-20T04:52Z
TLE epoch observation values (Epoch: 2026-06-20T04:52:18.006Z)
Latitude
-0.00006°
Longitude
-93.15607°
Altitude
483.113 km
Speed
7.626 km/s
True Right ascension
16h 33m 21s
True Declination
0° 00' 00"
Sunlit
Object was in full shadow at epoch
Visualization orbit readout
Latitude
Unknown
Longitude
Unknown
Altitude
Unknown
Speed
Unknown
Apparent Right ascension
Unknown
Apparent Declination
Unknown
Sunlit
N/A
Visualization observer readout
Local Sidereal Time
00:39:43
Azimuth
Unknown
Elevation
Unknown
Doppler factor
Unknown
Orbital elements
Apogee altitude
485.938 km
Perigee altitude
484.048 km
Semi-major axis
6,863.13 km
Eccentricity
0.00014
Inclination
43.0003°
RAAN
248.34°
Arg. of periapsis
252.2489°
True anomaly
107.83622°
Mean anomaly
107.8212°
Eccentric anomaly
107.82871°
Mean motion
3.81733 °/min
Orbital period
94.31 mins
BSTAR
0.000015801
Loading maneuver chart data...
Computing Atmospheric mass density...
Loading historical data...
Loading historical data...
Loading historical data...
Loading historical data...
Loading historical data...
Loading historical data...
Loading historical data...

Documentation

Showing up to 5 results
|